• In Latvia
  • List of Countries
  • For 7 days
  • Water Temperature
  • Satellite Maps
  • Weather Map
  • Weather Widgets
  • user-avatar
    Login

    Hourly Weather Malowice

    Today, 14 August, Tuesday

    Time Temperature Precipitation Wind Pressure Humidity
    00:00 +21°C° 1 mm 3 mps 748 mmHg 82%
    01:00 +21°C° 0 mm 3 mps 748 mmHg 81%
    02:00 +21°C° 0.4 mm 3 mps 748 mmHg 83%
    03:00 +21°C° 0.4 mm 3 mps 748 mmHg 85%
    04:00 +20°C° 0.4 mm 3 mps 748 mmHg 88%
    05:00 +20°C° 0.7 mm 3 mps 748 mmHg 87%
    06:00 +21°C° 0.7 mm 3 mps 749 mmHg 87%
    07:00 +21°C° 0.7 mm 3 mps 749 mmHg 87%
    08:00 +22°C° 0.2 mm 3 mps 749 mmHg 80%
    09:00 +24°C° 0.2 mm 3 mps 749 mmHg 74%
    10:00 +25°C° 0.2 mm 3 mps 750 mmHg 67%
    11:00 +26°C° 0.1 mm 3 mps 750 mmHg 60%
    12:00 +27°C° 0.1 mm 4 mps 750 mmHg 54%
    13:00 +28°C° 0.1 mm 4 mps 749 mmHg 48%
    14:00 +28°C° 0 mm 4 mps 749 mmHg 47%
    15:00 +28°C° 0 mm 4 mps 749 mmHg 46%
    16:00 +28°C° 0 mm 4 mps 749 mmHg 46%
    17:00 +27°C° 0 mm 4 mps 749 mmHg 50%
    18:00 +25°C° 0 mm 3 mps 750 mmHg 55%
    19:00 +24°C° 0 mm 3 mps 750 mmHg 60%
    20:00 +22°C° 0 mm 3 mps 750 mmHg 63%
    21:00 +21°C° 0 mm 3 mps 751 mmHg 66%
    22:00 +21°C° 0 mm 3 mps 751 mmHg 69%
    23:00 +20°C° 0 mm 3 mps 751 mmHg 71%

    Tomorrow, 15 August, Wednesday

    Time Temperature Precipitation Wind Pressure Humidity
    00:00 +20°C° 0 mm 4 mps 751 mmHg 73%
    01:00 +19°C° 0 mm 4 mps 752 mmHg 76%
    02:00 +19°C° 0 mm 4 mps 752 mmHg 78%
    03:00 +19°C° 0 mm 4 mps 752 mmHg 81%
    04:00 +18°C° 0 mm 4 mps 752 mmHg 83%
    05:00 +19°C° 0 mm 5 mps 753 mmHg 82%
    06:00 +19°C° 0 mm 5 mps 753 mmHg 80%
    07:00 +19°C° 0 mm 5 mps 754 mmHg 79%
    08:00 +20°C° 0 mm 5 mps 754 mmHg 72%
    09:00 +21°C° 0 mm 5 mps 754 mmHg 66%
    10:00 +22°C° 0 mm 5 mps 754 mmHg 59%
    11:00 +23°C° 0 mm 5 mps 754 mmHg 57%
    12:00 +25°C° 0 mm 5 mps 754 mmHg 55%
    13:00 +25°C° 0 mm 5 mps 754 mmHg 53%
    14:00 +26°C° 0 mm 5 mps 754 mmHg 52%
    15:00 +26°C° 0 mm 4 mps 754 mmHg 51%
    16:00 +26°C° 0 mm 4 mps 754 mmHg 50%
    17:00 +25°C° 0 mm 3 mps 755 mmHg 54%
    18:00 +24°C° 0 mm 3 mps 755 mmHg 59%
    19:00 +23°C° 0 mm 2 mps 755 mmHg 63%
    20:00 +21°C° 0 mm 2 mps 755 mmHg 65%
    21:00 +20°C° 0 mm 2 mps 756 mmHg 68%
    22:00 +21°C° 0 mm 1 mps 756 mmHg 70%
    23:00 +20°C° 0 mm 1 mps 756 mmHg 72%

    Day after tomorrow, 16 August, Thursday

    Time Temperature Precipitation Wind Pressure Humidity
    00:00 +20°C° 0 mm 1 mps 756 mmHg 75%
    01:00 +19°C° 0 mm 1 mps 756 mmHg 77%
    02:00 +19°C° 0 mm 1 mps 756 mmHg 79%
    03:00 +18°C° 0 mm 1 mps 756 mmHg 80%
    04:00 +18°C° 0 mm 1 mps 756 mmHg 81%
    05:00 +19°C° 0 mm 1 mps 756 mmHg 77%
    06:00 +20°C° 0 mm 1 mps 756 mmHg 73%
    07:00 +22°C° 0 mm 1 mps 757 mmHg 68%
    08:00 +23°C° 0 mm 1 mps 757 mmHg 62%
    09:00 +23°C° 0 mm 0 mps 756 mmHg 56%
    10:00 +25°C° 0 mm 0 mps 756 mmHg 50%
    11:00 +27°C° 0 mm 1 mps 756 mmHg 48%
    12:00 +28°C° 0 mm 1 mps 756 mmHg 45%
    13:00 +29°C° 0 mm 1 mps 755 mmHg 42%
    14:00 +29°C° 0 mm 1 mps 755 mmHg 42%
    15:00 +29°C° 0 mm 2 mps 755 mmHg 42%
    16:00 +29°C° 0 mm 2 mps 754 mmHg 42%
    17:00 +27°C° 0 mm 2 mps 754 mmHg 47%
    18:00 +26°C° 0 mm 2 mps 754 mmHg 52%
    19:00 +25°C° 0 mm 2 mps 754 mmHg 58%
    20:00 +24°C° 0 mm 2 mps 754 mmHg 60%
    21:00 +23°C° 0 mm 2 mps 754 mmHg 63%
    22:00 +21°C° 0 mm 2 mps 755 mmHg 65%
    23:00 +21°C° 0 mm 2 mps 755 mmHg 67%

    17 August, Friday

    Time Temperature Precipitation Wind Pressure Humidity
    00:00 +20°C° 0 mm 2 mps 754 mmHg 68%
    01:00 +20°C° 0 mm 2 mps 754 mmHg 70%
    02:00 +19°C° 0 mm 2 mps 754 mmHg 71%
    03:00 +19°C° 0 mm 2 mps 754 mmHg 72%
    04:00 +19°C° 0 mm 2 mps 754 mmHg 73%
    05:00 +20°C° 0 mm 2 mps 754 mmHg 71%
    06:00 +21°C° 0 mm 2 mps 754 mmHg 68%
    07:00 +23°C° 0 mm 2 mps 754 mmHg 65%
    08:00 +25°C° 0 mm 2 mps 754 mmHg 59%
    09:00 +26°C° 0 mm 3 mps 753 mmHg 54%
    10:00 +28°C° 0 mm 3 mps 753 mmHg 48%
    11:00 +29°C° 0 mm 3 mps 753 mmHg 44%
    12:00 +30°C° 0 mm 2 mps 753 mmHg 41%
    13:00 +31°C° 0 mm 2 mps 752 mmHg 38%
    14:00 +31°C° 0 mm 2 mps 752 mmHg 37%
    15:00 +31°C° 0 mm 1 mps 752 mmHg 37%
    16:00 +31°C° 0 mm 1 mps 752 mmHg 36%
    17:00 +30°C° 0 mm 1 mps 752 mmHg 40%
    18:00 +28°C° 0 mm 1 mps 752 mmHg 44%
    19:00 +27°C° 0 mm 1 mps 752 mmHg 48%
    20:00 +26°C° 0.1 mm 1 mps 752 mmHg 51%
    21:00 +25°C° 0.1 mm 2 mps 753 mmHg 54%
    22:00 +25°C° 0.1 mm 2 mps 753 mmHg 57%
    23:00 +24°C° 0.2 mm 3 mps 753 mmHg 64%

    18 August, Saturday

    Time Temperature Precipitation Wind Pressure Humidity
    00:00 +22°C° 0.2 mm 3 mps 754 mmHg 71%
    01:00 +21°C° 0.2 mm 4 mps 754 mmHg 78%
    02:00 +21°C° 0.2 mm 4 mps 754 mmHg 82%
    03:00 +20°C° 0.2 mm 4 mps 754 mmHg 86%
    04:00 +20°C° 0.2 mm 4 mps 755 mmHg 89%
    05:00 +20°C° 0.1 mm 4 mps 755 mmHg 88%
    06:00 +20°C° 0.1 mm 4 mps 756 mmHg 88%
    07:00 +19°C° 0.1 mm 4 mps 756 mmHg 87%
    08:00 +20°C° 0 mm 4 mps 757 mmHg 79%
    09:00 +21°C° 0 mm 4 mps 757 mmHg 72%
    10:00 +22°C° 0 mm 4 mps 757 mmHg 65%
    11:00 +23°C° 0 mm 4 mps 757 mmHg 58%
    12:00 +26°C° 0 mm 4 mps 757 mmHg 51%
    13:00 +27°C° 0 mm 3 mps 757 mmHg 44%
    14:00 +27°C° 0 mm 3 mps 757 mmHg 42%
    15:00 +27°C° 0 mm 3 mps 757 mmHg 40%
    16:00 +27°C° 0 mm 3 mps 757 mmHg 38%
    17:00 +26°C° 0 mm 3 mps 757 mmHg 42%
    18:00 +24°C° 0 mm 2 mps 757 mmHg 47%
    19:00 +23°C° 0 mm 2 mps 757 mmHg 51%
    20:00 +22°C° 0 mm 1 mps 757 mmHg 52%
    21:00 +21°C° 0 mm 1 mps 757 mmHg 54%
    22:00 +20°C° 0 mm 1 mps 757 mmHg 56%
    23:00 +19°C° 0 mm 1 mps 757 mmHg 58%

    19 August, Sunday

    Time Temperature Precipitation Wind Pressure Humidity
    00:00 +19°C° 0 mm 1 mps 757 mmHg 59%
    01:00 +19°C° 0 mm 1 mps 757 mmHg 61%
    02:00 +17°C° 0 mm 2 mps 757 mmHg 62%
    03:00 +17°C° 0 mm 2 mps 757 mmHg 64%
    04:00 +17°C° 0 mm 2 mps 757 mmHg 66%
    05:00 +18°C° 0 mm 2 mps 757 mmHg 63%
    06:00 +19°C° 0 mm 2 mps 758 mmHg 61%
    07:00 +20°C° 0 mm 2 mps 758 mmHg 59%
    08:00 +23°C° 0 mm 2 mps 758 mmHg 53%
    09:00 +25°C° 0 mm 3 mps 758 mmHg 47%
    10:00 +27°C° 0 mm 3 mps 757 mmHg 41%
    11:00 +27°C° 0 mm 3 mps 757 mmHg 39%
    12:00 +28°C° 0 mm 3 mps 757 mmHg 38%
    13:00 +29°C° 0 mm 3 mps 757 mmHg 37%
    14:00 +29°C° 0 mm 3 mps 756 mmHg 38%
    15:00 +29°C° 0 mm 3 mps 756 mmHg 39%
    16:00 +29°C° 0 mm 3 mps 756 mmHg 40%
    17:00 +28°C° 0 mm 3 mps 756 mmHg 46%
    18:00 +26°C° 0 mm 2 mps 756 mmHg 52%
    19:00 +25°C° 0 mm 2 mps 756 mmHg 59%
    20:00 +24°C° 0 mm 2 mps 756 mmHg 63%
    21:00 +23°C° 0 mm 1 mps 756 mmHg 68%
    22:00 +22°C° 0 mm 1 mps 757 mmHg 72%
    23:00 +21°C° 0 mm 1 mps 757 mmHg 73%
    Show more